Regional Weather Roundup
Issued by NWS

Home | Current Version | Previous Version | Graphics & Text | Print | Product List | Glossary Off
Versions: 1 2 3 4 5 6 7 8 9 10 11 12 13 14 15 16 17 18 19 20 21 22 23 24 25 26 27 28 29 30 31 32 33 34 35 36 37 38 39 40 41 42 43 44 45 46 47 48 49 50

000
ASUS43 KTOP 162108
RWRKS

WEATHER ROUNDUP FOR KANSAS
NATIONAL WEATHER SERVICE GOODLAND KS
400 PM CDT WED AUG 16 2017

NOTE:  "FAIR" INDICATES FEW OR NO CLOUDS BELOW 12,000 FEET WITH NO
SIGNIFICANT WEATHER AND/OR OBSTRUCTIONS TO VISIBILITY.

KSZ001>006-013>018-027>032-041>047-162200-
NORTHWEST KANSAS

CITY           SKY/WX    TMP DP  RH WIND       PRES   REMARKS
GOODLAND       MOSUNNY   79  55  43 NW15G23   30.00S
HAYS           SUNNY     82  62  50 NW9G17    29.90F
HILL CITY      MOSUNNY   82  62  50 NW15      29.91F
RUSSELL        MOSUNNY   83  59  44 NW14G24   29.87F
$$

KSZ061>065-074>080-084>089-162200-
SOUTHWEST KANSAS

CITY           SKY/WX    TMP DP  RH WIND       PRES   REMARKS
DODGE CITY     MOSUNNY   87  58  37 NW13      29.93S
ELKHART          N/A     82  56  40 NW8         N/A
GARDEN CITY    SUNNY     85  55  35 NW9       29.95F
GREAT BEND     MOSUNNY   81  64  56 NW10G17   29.90F
LIBERAL        SUNNY     85  61  44 NW15      29.96F
PRATT          SUNNY     84  65  52 N16G22    29.88S
$$

KSZ066>073-081>083-090>101-162200-
SOUTHEAST KANSAS

CITY           SKY/WX    TMP DP  RH WIND       PRES   REMARKS
CHANUTE        MOSUNNY   87  77  72 S15       29.82F HX  99
COFFEYVILLE    CLOUDY    87  76  69 S21G28    29.81F HX  97
HUTCHINSON     MOSUNNY   81  68  64 NW12      29.85S
MEDICINE LODGE   N/A     83  69  62 N12       29.83R
NEWTON         CLOUDY    81  71  71 N15G22    29.86R
PARSONS        TSTM      81  74  79 SE8G18    29.83F VSB 3/4
WICHITA INTL   CLOUDY    75  69  81 E10       29.82R
WICHITA JABRA  CLOUDY    68  67  96 NE12      29.83F
WICHITA MCCONL PTSUNNY   74  64  71 NE13G20   29.82R
WINFIELD       PTSUNNY   89  76  65 SW10G18   29.81F HX 100
$$

KSZ007>012-019>026-033>040-048>060-102>105-162200-
NORTHEAST KANSAS

CITY           SKY/WX    TMP DP  RH WIND       PRES   REMARKS
CONCORDIA      MOSUNNY   83  64  52 W13G18    29.84F
EMPORIA        PTSUNNY   81  72  74 NW9       29.82F
LAWRENCE       PTSUNNY   83  73  72 W7        29.80F
MANHATTAN      MOSUNNY   81  67  62 W14G20    29.84S
MARYSVILLE     CLOUDY    81  64  57 W9        29.82F
OLATHE IND     CLOUDY    81  73  76 W8        29.82S
OLATHE EXE     CLOUDY    82  73  74 S7        29.82S
SALINA         CLOUDY    82  63  52 NW7       29.86F
TOPEKA BILLARD CLOUDY    82  71  69 W9        29.81F
TOPEKA FORBES  CLOUDY    83  71  67 W8        29.82S
$$



USA.gov is the U.S. government's official web portal to all federal, state and local government web resources and services.